Regional Weather Roundup
Issued by NWS

Home | Current Version | Previous Version | Graphics & Text | Print | Product List | Glossary On
Versions: 1 2 3 4 5 6 7 8 9 10 11 12 13 14 15 16 17 18 19 20 21 22 23 24 25 26 27 28 29 30 31 32 33 34 35 36 37 38 39 40 41 42 43 44 45 46 47 48 49 50
021
ASUS45 KBOU 250107
RWRCO

WEATHER ROUNDUP FOR COLORADO
NATIONAL WEATHER SERVICE DENVER/BOULDER CO
700 PM MDT SUN SEP 24 2017

NOTE: "FAIR" INDICATES FEW OR NO CLOUDS BELOW 12000 FEET WITH NO
SIGNIFICANT WEATHER AND/OR OBSTRUCTIONS TO VISIBILITY.

COZ001>005-013-030-031-250200-
...NORTHWEST COLORADO...

CITY           SKY/WX    TMP DP  RH WIND       PRES   REMARKS
CRAIG          MOCLDY    49  26  41 W20G25    30.02R
HAYDEN         CLOUDY    48  25  40 W6        30.03R
MEEKER         FAIR      48  32  53 W16G23    30.01R
RABBIT EARS PA LGT SNOW  30  28  93 W8G18     30.12R WCI  23
STEAMBOAT SPGS CLOUDY    43  34  71 NE10      30.02F
WALDEN         CLOUDY    37  34  87 W10       30.08R
$$

COZ006>008-011-250200-
...WEST CENTRAL VALLEYS...

CITY           SKY/WX    TMP DP  RH WIND       PRES   REMARKS
GRAND JUNCTION FAIR      57  28  33 NW13      29.98R
MONTROSE       FAIR      56  14  19 W15       30.00R
EAGLE          CLOUDY    52  20  28 N5        30.04R
RIFLE          FAIR      56  25  30 W13       29.98R
DELTA          NOT AVBL
NUCLA          FAIR      55  14  19 S8        30.05R
$$

COZ017>023-064>068-250200-
...SOUTHWEST COLORADO...

CITY           SKY/WX    TMP DP  RH WIND       PRES   REMARKS
DURANGO        FAIR      54  23  30 NW8       30.02R
CORTEZ         FAIR      55  17  22 W9        30.02R
PAGOSA SPRINGS FAIR      51  21  30 W3        30.05S
TELLURIDE      FAIR      44  14  29 W6        30.12R
WOLF CREEK PAS FAIR      30  19  64 SW16G25   30.24R WCI  19
$$

COZ009-010-012-014-032>034-037-058>063-250200-
...CENTRAL COLORADO...

CITY           SKY/WX    TMP DP  RH WIND       PRES   REMARKS
ASPEN          CLOUDY    47  24  40 NE9       30.02R
BUENA VISTA    FAIR      54  13  20 S9G20     29.98R
COPPER MTN     MOCLDY    34  27  75 MISG      30.16R
BERTHOUD PASS  SNOW      27  18  69 SE9       30.17R VSB 1/4 WCI  17
COTTONWOOD PAS FAIR      50  19  29 W18G24    30.07R
GUNNISON       FAIR      49  22  34 SW14G22   30.04R
KREMMLING      CLOUDY    54  32  43 NW7       30.04R
LEADVILLE      MOCLDY    39  24  55 N13G22    30.06R
SALIDA         FAIR      59  14  17 S13G21    30.05R
SUNLIGHT       FAIR      30  19  64 SW16G25   30.15R WCI  19
WILKERSON PASS FAIR      37  27  65 SW10G22   30.16R
$$

COZ069>075-250200-
...SAN LUIS VALLEY/SANGRE DE CRISTO MOUNTAINS...

CITY           SKY/WX    TMP DP  RH WIND       PRES   REMARKS
ALAMOSA        FAIR      54  22  28 SW13      30.00R
DEL NORTE      FAIR      50  19  29 W10       30.05R
LA VETA PASS   FAIR      45  23  42 S15G30    30.25R
SAGUACHE       FAIR      50  18  27 W16       30.04R
$$

COZ035-036-038>040-250200-
...NORTHERN COLORADO FRONT RANGE...

CITY           SKY/WX    TMP DP  RH WIND       PRES   REMARKS
DENVER INTL AP DRZL/FOG  48  45  89 NE13      29.99R VSB 1/2
DMNS CITY PARK   N/A     47  47  99 NE10      30.00R
AURORA         CLOUDY    48  48 100 E8        30.00R FOG
FRONT RANGE AP CLOUDY    50  48  93 E10G18    30.00S FOG
ERIE MUNI ARPT DRIZZLE   48  46  95 NE5       30.05S
BOULDER MUN AP DRIZZLE   46  46 100 CALM      30.00S
CENTENNIAL     CLOUDY    48  46  93 NE6       29.99R FOG
BROOMFIELD     DRZL/FOG  46  46 100 N6        30.01S VSB 3/4
FORT COLLINS   LGT RAIN  47  46  97 SE5       30.02R FOG
LONGMONT       LGT RAIN  49  47  92 CALM      30.02F
$$

COZ041-046-047-076>085-087-088-250200-
...PIKES PEAK/PALMER DIVIDE AND SOUTHERN FOOTHILLS...

CITY           SKY/WX    TMP DP  RH WIND       PRES   REMARKS
COLO. SPRINGS  LGT RAIN  51  48  89 E12       30.01R
A. F. ACADEMY  CLOUDY    52  46  82 SE10      29.99R
SCHRIEVER AFB  CLOUDY    48  47  94 MISG      30.01R
CHEYENNE MTN     N/A     47  46  96 SE12      29.97R
ELLICOTT       CLOUDY   N/A N/A N/A E10       29.99R
FALCON         CLOUDY    48  46  95 E7        30.04R
FORT CARSON    CLOUDY    52  50  93 SE10      29.98S
LIMON            N/A    N/A N/A N/A MISG        N/A
MONUMENT HILL  FAIR      45  43  93 SE8       30.03R
CANON CITY     CLOUDY    55  52  88 E12       29.97R
WALSENBURG     CLOUDY    54  50  87 NE5       29.99R
TRINIDAD       CLOUDY    54  52  93 N10       29.97R FOG
$$

COZ042>045-048>051-090-091-250200-
...NORTHEAST COLORADO...

CITY           SKY/WX    TMP DP  RH WIND       PRES   REMARKS
GREELEY ARPT   CLOUDY    49  47  93 E9        30.01S
AKRON          CLOUDY    48  46  93 E12       29.99S FOG
BURLINGTON     CLOUDY    52  51  97 NE12      29.96S FOG
WRAY           LGT RAIN  52  52 100 NE10      29.98F
YUMA           CLOUDY    46  46 100 NE12      29.98F
STERLING       LGT RAIN  52  46  82 E6        29.99S
HOLYOKE        CLOUDY    54  50  87 NE8       30.00S FOG
FORT MORGAN    CLOUDY    48  46  91 E8        30.00S FOG
$$

COZ086-089-092>099-250200-
...SOUTHEAST COLORADO...

CITY           SKY/WX    TMP DP  RH WIND       PRES   REMARKS
PUEBLO         CLOUDY    55  51  86 E10       29.94F
LA JUNTA       LGT RAIN  56  55  97 N8        29.92R FOG
LAMAR          CLOUDY    57  55  93 NE9       29.88S
SPRINGFIELD      N/A     58  58 100 NE10      29.89R
$$




USA.gov is the U.S. government's official web portal to all federal, state and local government web resources and services.